This is the latest recevied weather packets stored in our database for station/object VK4TW-13. If no packets are shown the sender has not sent any weather packets the latest 10 day(s).
| Time | Temp. | Humidity | Pressure | Rain* | Wind** | Luminosity | Snow |
|---|---|---|---|---|---|---|---|
| 1788041238 | 20.56° C | 100% | 1026.1 hPa | 0 mm | - | - | - |
| 1788040845 | 20.56° C | 100% | 1026 hPa | 0 mm | - | - | - |
| 1788040244 | 20° C | 100% | 1026.1 hPa | 0 mm | - | - | - |
| 1788039643 | 19.44° C | 100% | 1026 hPa | 0 mm | - | - | - |
| 1788039042 | 18.33° C | 100% | 1025.9 hPa | 0 mm | - | - | - |
| 1788038442 | 18.33° C | 100% | 1025.8 hPa | 0 mm | - | - | - |
| 1788037842 | 17.78° C | 100% | 1025.8 hPa | 0 mm | - | - | - |
| 1788037241 | 17.22° C | 100% | 1025.6 hPa | 0 mm | - | - | - |
| 1788036639 | 16.67° C | 100% | 1025.6 hPa | 0 mm | - | - | - |
| 1788036038 | 16.67° C | 100% | 1025.5 hPa | 0 mm | - | - | - |
| 1788035438 | 16.67° C | 100% | 1025.4 hPa | 0 mm | - | - | - |
| 1788034837 | 16.11° C | 100% | 1025.3 hPa | 0 mm | - | - | - |
| 1788034235 | 16.67° C | 100% | 1025.2 hPa | 0 mm | - | - | - |
| 1788033635 | 16.67° C | 100% | 1025.3 hPa | 0 mm | - | - | - |
| 1788033033 | 16.67° C | 100% | 1025.1 hPa | 0 mm | - | - | - |
| 1788032433 | 16.67° C | 100% | 1025.2 hPa | 0 mm | - | - | - |
| 1788031832 | 16.67° C | 100% | 1025.1 hPa | 0 mm | - | - | - |
| 1788031231 | 16.67° C | 100% | 1025.1 hPa | 0 mm | - | - | - |
| 1788030630 | 16.67° C | 100% | 1025.1 hPa | 0 mm | - | - | - |
| 1788030030 | 16.67° C | 100% | 1024.9 hPa | 0 mm | - | - | - |
| 1788029429 | 16.67° C | 100% | 1024.9 hPa | 0 mm | - | - | - |
| 1788028827 | 16.67° C | 100% | 1024.8 hPa | 0 mm | - | - | - |
| 1788028227 | 16.67° C | 100% | 1024.7 hPa | 0 mm | - | - | - |
| 1788027625 | 16.67° C | 100% | 1024.6 hPa | 0 mm | - | - | - |
| 1788027025 | 16.67° C | 100% | 1024.6 hPa | 0 mm | - | - | - |
* Rain since midnight (hover to see other rain measurements)
** Current wind speed in m/s (hover to see current wind gust speed)